Regional Weather Roundup
Issued by NWS

Home | Current Version | Previous Version | Graphics & Text | Print | Product List | Glossary On
Versions: 1 2 3 4 5 6 7 8 9 10 11 12 13 14 15 16 17 18 19 20 21 22 23 24 25 26 27 28 29 30 31 32 33 34 35 36 37 38 39 40 41 42 43 44 45 46 47 48 49 50
000
ASUS43 KOAX 160010
RWRNE

WEATHER ROUNDUP FOR NEBRASKA
NATIONAL WEATHER SERVICE OMAHA NE
600 PM CST SUN JAN 15 2017

NOTES: SATELLITE DATA IS BEING USED TO AUGMENT CLOUD COVER ABOVE
       12000 FEET.
       "FAIR" INDICATES FEW OR NO CLOUDS BELOW 12,000 FEET WITH NO
       SIGNIFICANT WEATHER AND/OR OBSTRUCTIONS TO VISIBILITY.

  * THESE STATIONS DO NOT REPORT WEATHER SUCH AS RAIN...SNOW OR FOG.

NEZ001>004-019>022-054>056-160100-
NEBRASKA PANHANDLE

CITY           SKY/WX    TMP DP  RH WIND       PRES   REMARKS
SCOTTSBLUFF    CLOUDY    35  25  66 CALM      29.99S
6HR MIN TEMP:  30; 6HR MAX TEMP:  40;

ALLIANCE       CLOUDY    33  23  66 NE3       29.99S
6HR MIN TEMP:  32; 6HR MAX TEMP:  41;

CHADRON        CLOUDY    26  22  84 CALM      30.01F
6HR MIN TEMP:  24; 6HR MAX TEMP:  32;

KIMBALL        CLOUDY    35  28  75 NE3       29.97S
SIDNEY         MIX PCPN  30  25  81 S8        29.99S WCI  22
6HR MIN TEMP:  30; 6HR MAX TEMP:  36; 6HR PCP: TRACE;

$$

NEZ057>060-069>072-079>082-160100-
SOUTHWEST NEBRASKA

CITY           SKY/WX    TMP DP  RH WIND       PRES   REMARKS
NORTH PLATTE   FRZ RAIN  31  28  89 CALM      30.06F FOG
6HR MIN TEMP:  31; 6HR MAX TEMP:  35; 6HR PCP:  0.11;

IMPERIAL       FRZ RAIN  31  29  92 CALM      30.03S FOG
6HR MIN TEMP:  28; 6HR MAX TEMP:  31; 6HR PCP:  0.29;

LEXINGTON      MIX PCPN  31  28  91 E3        30.08F
MCCOOK         CLOUDY    30  30 100 E7        30.05F FOG     WCI  23
6HR MIN TEMP:  30; 6HR MAX TEMP:  31; 6HR PCP:  0.11;

OGALLALA       MIX PCPN  32  30  93 CALM      30.04S
$$

NEZ005>010-023>029-035>040-094-160100-
NORTH CENTRAL NEBRASKA

CITY           SKY/WX    TMP DP  RH WIND       PRES   REMARKS
VALENTINE      CLOUDY    35  22  58 S7        30.04R WCI  29
6HR MIN TEMP:  35; 6HR MAX TEMP:  47;

AINSWORTH      CLOUDY    33  26  75 S5        30.05S WCI  28
BROKEN BOW     FRZ RAIN  31  29  92 S5        30.07F FOG     WCI  26
6HR MIN TEMP:  31; 6HR MAX TEMP:  33; 6HR PCP:  0.01;

O`NEILL        CLOUDY    32  23  69 S5        30.10R WCI  27
ORD            CLOUDY    31  28  89 SE3       30.10S FOG
6HR MIN TEMP:  31; 6HR MAX TEMP:  33;

THEDFORD       CLOUDY    36  26  67 S3        30.05S
$$

NEZ041-046>049-061>064-073>077-083>087-160100-
SOUTH CENTRAL NEBRASKA

CITY           SKY/WX    TMP DP  RH WIND       PRES   REMARKS
GRAND ISLAND   CLOUDY    30  30 100 SE6       30.12F WCI  24
6HR MIN TEMP:  28; 6HR MAX TEMP:  30; 6HR PCP:  0.14;

AURORA         MIX PCPN  30  29  96 E5        30.12F WCI  25
HASTINGS       CLOUDY    30  28  92 E6        30.11F WCI  24
6HR MIN TEMP:  29; 6HR MAX TEMP:  30; 6HR PCP:  0.05;

HEBRON         MIX PCPN  31  30  96 E5        30.14S WCI  26
HOLDREGE       CLOUDY    30  29  96 E5        30.08S FOG     WCI  25
KEARNEY *      CLOUDY    30  27  86 CALM      30.10S
YORK           LGT RAIN  32  30  93 CALM      30.14F
$$

NEZ011>018-030>034-042>045-160100-
NORTHEAST NEBRASKA

CITY           SKY/WX    TMP DP  RH WIND       PRES   REMARKS
NORFOLK        CLOUDY    32  23  69 S6        30.14S WCI  26
6HR MIN TEMP:  31; 6HR MAX TEMP:  34;

ALBION         CLOUDY    30  28  92 SE3       30.13S FOG
BLAIR          MIX PCPN  31  30  95 E6        30.17F WCI  25
FREMONT        MIX PCPN  31  30  98 SE5       30.18F WCI  26
TEKAMAH        FRZ RAIN  31  27  85 SE7       30.19F FOG     WCI  24
6HR MIN TEMP:  31; 6HR MAX TEMP:  36; 6HR PCP:  0.01;

WAYNE          CLOUDY    31  24  75 S3        30.16S
$$

NEZ050>053-065>068-078-088>093-160100-
SOUTHEAST NEBRASKA

CITY           SKY/WX    TMP DP  RH WIND       PRES   REMARKS
LINCOLN        FRZ RAIN  31  29  92 E6        30.18F FOG     WCI  25
6HR MIN TEMP:  30; 6HR MAX TEMP:  31; 6HR PCP:  0.15;

OMAHA EPPLEY   FRZ RAIN  32  27  81 SE3       30.20F FOG
6HR MIN TEMP:  31; 6HR MAX TEMP:  35; 6HR PCP:  0.07;

BEATRICE       MIX PCPN  32  31  96 E8        30.15F WCI  25
FALLS CITY     FRZ RAIN  32  30  92 E7        30.18S FOG     WCI  26
6HR MIN TEMP:  31; 6HR MAX TEMP:  32; 6HR PCP:  0.11;

NEBRASKA CITY  MIX PCPN  31  31  99 E5        30.19S WCI  26
PLATTSMOUTH    MIX PCPN  31  28  90 E6        30.19S WCI  25
$$

NEZ044-045-051>053-067-160100-
OMAHA AREA

CITY           SKY/WX    TMP DP  RH WIND       PRES   REMARKS
OMAHA EPPLEY   FRZ RAIN  32  27  81 SE3       30.20F FOG
6HR MIN TEMP:  31; 6HR MAX TEMP:  35; 6HR PCP:  0.07;

BLAIR          MIX PCPN  31  30  95 E6        30.17F WCI  25
FREMONT        MIX PCPN  31  30  98 SE5       30.18F WCI  26
MILLARD        LGT RAIN  33  31  94 SE3       30.19S
OFFUTT AFB     FRZ RAIN  32  32 100 CALM      30.19F
PLATTSMOUTH    MIX PCPN  31  28  90 E6        30.19S WCI  25
WAHOO          MIX PCPN  31  29  94 SE9       30.18F WCI  23
$$




USA.gov is the U.S. government's official web portal to all federal, state and local government web resources and services.